Satellite: MET-3/5
Catalog number: 21655
Epoch time:      08289.90839406
Element set:    0518
Inclination:      082.5573 deg
RA of node:       019.0842 deg
Eccentricity:    0.0014857
Arg of perigee:   072.0933 deg
Mean anomaly:     288.1811 deg
Mean motion:   13.17016853 rev/day
Decay rate:        5.1e-07 rev/day^2
Epoch rev:           82547
Checksum:              317

Satellite: MET-2/21
Catalog number: 22782
Epoch time:      08289.82961231
Element set:    0277
Inclination:      082.5528 deg
RA of node:       015.8626 deg
Eccentricity:    0.0021442
Arg of perigee:   315.0706 deg
Mean anomaly:     044.8711 deg
Mean motion:   13.83633083 rev/day
Decay rate:        1.1e-07 rev/day^2
Epoch rev:           76381
Checksum:              295

Satellite: OKEAN-4
Catalog number: 23317
Epoch time:      08289.72797166
Element set:    0723
Inclination:      082.5413 deg
RA of node:       202.5892 deg
Eccentricity:    0.0024038
Arg of perigee:   089.2130 deg
Mean anomaly:     271.1863 deg
Mean motion:   14.82641817 rev/day
Decay rate:       1.63e-06 rev/day^2
Epoch rev:           75614
Checksum:              308

Satellite: NOAA-14
Catalog number: 23455
Epoch time:      08290.49965893
Element set:     351
Inclination:      098.9366 deg
RA of node:       002.7453 deg
Eccentricity:    0.0009881
Arg of perigee:   156.6236 deg
Mean anomaly:     203.5415 deg
Mean motion:   14.13748574 rev/day
Decay rate:      -1.73e-06 rev/day^2
Epoch rev:           71149
Checksum:              330

Satellite: NOAA-15
Catalog number: 25338
Epoch time:      08290.22188666
Element set:     662
Inclination:      098.5650 deg
RA of node:       279.0687 deg
Eccentricity:    0.0011414
Arg of perigee:   052.4133 deg
Mean anomaly:     307.8087 deg
Mean motion:   14.24729145 rev/day
Decay rate:       1.62e-06 rev/day^2
Epoch rev:           54203
Checksum:              305

Satellite: RESURS
Catalog number: 25394
Epoch time:      08289.95023576
Element set:    0068
Inclination:      098.3747 deg
RA of node:       328.3294 deg
Eccentricity:    0.0001011
Arg of perigee:   166.8524 deg
Mean anomaly:     193.2682 deg
Mean motion:   14.24172626 rev/day
Decay rate:       -2.1e-07 rev/day^2
Epoch rev:           53363
Checksum:              305

Satellite: FENGYUN1
Catalog number: 25730
Epoch time:      08290.73751490
Element set:     592
Inclination:      098.7339 deg
RA of node:       262.4693 deg
Eccentricity:    0.0019877
Arg of perigee:   180.5819 deg
Mean anomaly:     179.5332 deg
Mean motion:   14.07810750 rev/day
Decay rate:       2.42e-06 rev/day^2
Epoch rev:           48606
Checksum:              328

Satellite: OKEAN-0
Catalog number: 25860
Epoch time:      08289.58070042
Element set:     499
Inclination:      097.7622 deg
RA of node:       274.8765 deg
Eccentricity:    0.0000506
Arg of perigee:   072.3950 deg
Mean anomaly:     287.7311 deg
Mean motion:   14.73539839 rev/day
Decay rate:        5.6e-07 rev/day^2
Epoch rev:           49712
Checksum:              331

Satellite: NOAA-16
Catalog number: 26536
Epoch time:      08290.19488018
Element set:     137
Inclination:      099.1667 deg
RA of node:       282.0888 deg
Eccentricity:    0.0009804
Arg of perigee:   244.8078 deg
Mean anomaly:     115.2108 deg
Mean motion:   14.12498415 rev/day
Decay rate:       -4.0e-07 rev/day^2
Epoch rev:           41585
Checksum:              322

Satellite: NOAA-17
Catalog number: 27453
Epoch time:      08290.47011764
Element set:     137
Inclination:      098.5216 deg
RA of node:       351.5033 deg
Eccentricity:    0.0012752
Arg of perigee:   114.1461 deg
Mean anomaly:     246.1046 deg
Mean motion:   14.24010116 rev/day
Decay rate:       1.35e-06 rev/day^2
Epoch rev:           32806
Checksum:              256

Satellite: NOAA-18
Catalog number: 28654
Epoch time:      08290.50766636
Element set:     625
Inclination:      098.8783 deg
RA of node:       229.9950 deg
Eccentricity:    0.0014133
Arg of perigee:   334.9094 deg
Mean anomaly:     025.1383 deg
Mean motion:   14.11200298 rev/day
Decay rate:      -1.00e-06 rev/day^2
Epoch rev:           17558
Checksum:              316

/EX
SB KEPS @ AMSAT  $ORB08290.M
Orbital Elements  08290.MISC

HR AMSAT ORBITAL ELEMENTS FOR MANNED AND MISCELLANEOUS SATELLITES
FROM WA5QGD FORT WORTH,TX October 16, 2008
Send Subscribe/unsubscribe to KEPS at 
http://www.amsat.org/mailman/listinfo/keps
BID: ORB08290.M
TO ALL RADIO AMATEURS BT

Satellite: HUBBLE
Catalog number: 20580
Epoch time:      08289.94102288
Element set:    0247
Inclination:      028.4703 deg
RA of node:       255.6187 deg
Eccentricity:    0.0003864
Arg of perigee:   221.5556 deg
Mean anomaly:     138.4741 deg
Mean motion:   15.00417068 rev/day
Decay rate:       4.09e-06 rev/day^2
Epoch rev:           81313
Checksum:              292

Satellite: PO-34
Catalog number: 25520
Epoch time:      08290.75568723
Element set:     101
Inclination:      028.4580 deg
RA of node:       084.8565 deg
Eccentricity:    0.0005861
Arg of perigee:   170.2123 deg
Mean anomaly:     189.8587 deg
Mean motion:   15.17242923 rev/day
Decay rate:       5.61e-06 rev/day^2
Epoch rev:           55164
Checksum:              309

